Find Starlink 33674

NORAD ID: 63329 Int'l Des: 2025-057 Owner: SPXS Country: US Constellation: starlink operational
LEOCIRCULAR

实时位置

正在加载3D地球...

关于 Starlink 33674

正在加载描述...

即将过境

Passes for default location (London). Set your location on the main map for personalized predictions.

高度历史

Loading altitude history...

两行轨道根数

1 63329U 25057Y 26133.92557240 .00010560 00000-0 39266-3 0 9992
2 63329 43.0020 22.4989 0001637 270.5079 89.5586 15.27584999 65758
Epoch: May 13, 2026 • Age: 16 hours

当前状态

高度 487.2 km
速度 7.63 km/s
星下点 42.76°N, 30.94°E
发射日期 Mar 18, 2025
运行时间 1.1 years
类型 internet

技术详情

分类 Payload
质量 575.00 kg
干质量 530.00 kg
总质量 575.00 kg
长度 0.30 m
直径 4.10 m
跨度 29.00 m
形状 Box + pan
制造商 SPXS
平台类型 Starlink V2MO
阶段状态 In Orbit
所有者/国家 SPXS/US

Most Searched